Notices

What's New in latest Release from April 7th, 2021:

- Updated Glossary, including Speed of Maximum Gust, and Total Hourly Precipitation

- Updated national and regional climate services offices contacts and prices information

- Addition of station inventory lists for 1981-2010, 1971-2000, and 1961-1990 Normals.

If you haven't already, please take our survey and provide feedback about our website: https://eccc.sondage-survey.ca/f/LanguageSelection.aspx?s=442ca660-fcf1-47c0-95a9-59707d6fd709

Hourly Data Report for January 09, 2017

TORONTO CITY
ONTARIO

43°40'00.000" N
79°24'00.000" W
112.50 m
6158355
71508
XTO

Download Data

Hourly Data (January 2017)
Hourly Data Report for January 9, 2017
TIME
LST
Temp Definition
°C
Dew Point Definition
°C
Rel Hum Definition
%
Precip. Amount Definition
mm

Wind Dir Definition
10's deg

Wind Spd Definition
km/h
Visibility Definition
km
Stn Press Definition
kPa
Hmdx Definition


Wind Chill Definition


Weather Definition


00:00 -9.0 -13.3 71 0.0 LegendMM LegendMM   102.09     LegendNANA
01:00 -8.5 -13.4 68 0.0 LegendMM LegendMM   102.02     LegendNANA
02:00 -8.1 -13.6 65 0.0 LegendMM LegendMM   102.01     LegendNANA
03:00 -7.8 -14.3 59 0.0 LegendMM LegendMM   101.99     LegendNANA
04:00 -7.4 -15.2 54 0.0 LegendMM LegendMM   101.95     LegendNANA
05:00 -7.3 -15.0 54 0.0 LegendMM LegendMM   101.88     LegendNANA
06:00 -6.5 -11.8 66 0.0 LegendMM LegendMM   101.85     LegendNANA
07:00 -6.1 -10.8 70 0.0 LegendMM LegendMM   101.84     LegendNANA
08:00 -5.5 -10.9 66 0.0 LegendMM LegendMM   101.71     LegendNANA
09:00 -5.6 -10.5 68 0.0 LegendMM LegendMM   101.67     LegendNANA
10:00 -5.4 -9.0 75 0.0 LegendMM LegendMM   101.63     LegendNANA
11:00 -5.1 -8.3 78 0.0 LegendMM LegendMM   101.54     LegendNANA
12:00 -3.9 -8.3 71 0.0 LegendMM LegendMM   101.41     LegendNANA
13:00 -3.6 -8.9 66 0.0 LegendMM LegendMM   101.33     LegendNANA
14:00 -3.3 -10.6 57 0.0 LegendMM LegendMM   101.29     LegendNANA
15:00 -2.7 -10.1 57 0.0 LegendMM LegendMM   101.30     LegendNANA
16:00 -2.4 -9.7 57 0.0 LegendMM LegendMM   101.34     LegendNANA
17:00 -2.6 -9.7 58 0.0 LegendMM LegendMM   101.39     LegendNANA
18:00 -3.0 -9.1 63 0.0 LegendMM LegendMM   101.40     LegendNANA
19:00 -3.1 -9.0 63 0.0 LegendMM LegendMM   101.40     LegendNANA
20:00 -2.9 -8.5 65 0.0 LegendMM LegendMM   101.43     LegendNANA
21:00 -2.3 -7.6 67 0.0 LegendMM LegendMM   101.43     LegendNANA
22:00 -2.1 -7.2 68 0.0 LegendMM LegendMM   101.43     LegendNANA
23:00 -1.7 -7.1 67 0.0 LegendMM LegendMM   101.36     LegendNANA

Notes on Data Quality.

Legend

  • E = Estimated
  • M = Missing
  • NA = Not Available*
  • [empty] = Indicates an unobserved value
Date modified: